Welcome to the New NWS' Forecast!
Most changes are behind the scenes, but click here for differences you might notice.
Latest weather observations around

Mount Ida (KMWT)

Using English Units (Switch to International System of Units)
Date/ Time (CDT) Wind (mph) Vis. (mi) Weather Sky Cond. Temp (°F) Rel. Humidity Wind Chill (°F) Heat Index (°F) Pressure Precip. (in)
Air Dwpt 6 hour Altimeter (inHg) Sea level (inHg) 1 hr 3 hr 6 hr
Max Min
Apr 28 05:53 Calm 10 Cloudy SCT018 BKN024 OVC040 58 55     90%     29.7 29.69      
Apr 28 04:53 Calm 10 Clear CLR 57 54     89%     29.69 29.68      
Apr 28 03:53 Calm 10 Clear CLR 57 53     87%     29.69 29.68      
Apr 28 02:53 Calm 10 Clear CLR 58 53     84%     29.7 29.68      
Apr 28 01:53 3 10 Clear CLR 59 53     81%     29.71 29.7      
Apr 28 00:53 ESE 3 10 Clear CLR 59 53     81%     29.73 29.72      
Apr 27 23:53 ESE 3 10 Clear CLR 60 53     78%     29.72 29.71      
Apr 27 22:53 Calm 10 Clear CLR 60 52     75%     29.73 29.72      
Apr 27 21:53 NE 5 10 Clear CLR 60 52     75%     29.72 29.71      
Apr 27 20:53 Calm 10 Clear CLR 60 51     72%     29.69 29.69      
Apr 27 19:53 SE 3 10 Clear CLR 63 51     65%     29.69 29.68      
Apr 27 18:53 ESE 6 10 Clear CLR 67 50     55%     29.68 29.68      
Apr 27 17:53 S 8 10 Clear CLR 69 45     42%     29.7 29.7      
Apr 27 16:53 5 10 Clear CLR 70 48     46%     29.71 29.7      
Apr 27 15:53 SE 7 10 Clear CLR 69 45     42%     29.74 29.74      
Apr 27 14:53 5 10 Clear CLR 69 46     44%     29.76 29.76      
Apr 27 13:53 5 10 Clear CLR 68 42     39%     29.8 29.8      
Apr 27 12:53 3 10 Clear CLR 66 45     47%     29.82 29.81      
Apr 27 11:53 5 10 Clear CLR 62 46     56%     29.81 29.8      
Apr 27 10:53 3 10 Clear CLR 58 42     55%     29.81 29.8      
Apr 27 09:53 SE 3 10 Clear CLR 56 45     67%     29.8 29.8      
Apr 27 08:53 Calm 10 Clear CLR 53 46     77%     29.79 29.8      
Apr 27 07:53 Calm 10 Clear CLR 46 45     96%     29.77 29.78      
Apr 27 06:53 Calm 10 Clear CLR 42 40     92%     29.76 29.77      
Apr 27 05:53 Calm 9 Mostly Clear FEW001 42 40     92%     29.74 29.75      
Apr 27 05:23 Calm 4 Fog/Mist SCT002 42 40     92%     29.73        
Apr 27 04:53 Calm 5 Fog/Mist CLR 43 41     93%     29.73 29.73      
Apr 27 03:53 Calm 5 Fog/Mist CLR 43 41     93%     29.71 29.71      
Apr 27 02:53 Calm 7 Clear CLR 44 42     93%     29.71 29.71      
Apr 27 01:53 Calm 10 Clear CLR 46 43     89%     29.71 29.71      
Apr 27 00:53 Calm 10 Clear CLR 47 45     93%     29.71 29.71      
Apr 26 23:53 Calm 10 Clear CLR 49 45     86%     29.71 29.7      
Apr 26 23:41 NW 5 10 Partly Cloudy SCT018 50 45     83% 48   29.7        
Apr 26 22:53 NW 10 10 Cloudy OVC015 51 45     79%     29.68 29.68      
Apr 26 22:40 7 10 Cloudy OVC015 51 46     83%     29.68        
Apr 26 21:53 NW 11 10 Cloudy OVC011 51 46     83%     29.66 29.65      
Apr 26 20:53 NW 7 10 Cloudy OVC011 51 47     86%     29.62 29.61      
Apr 26 19:53 NW 8 10 Cloudy OVC011 52 49     89%     29.58 29.57      
Apr 26 19:33 NW 10 10 Cloudy OVC011 52 49     89%     29.58        
Apr 26 19:11 7 10 Cloudy OVC009 53 50     89%     29.56        
Apr 26 18:53 NW 9 10 Cloudy OVC010 54 51     90%     29.55 29.54 0   0
Apr 26 17:53 NW 7 10 Cloudy BKN011 OVC026 55 52     89%     29.51 29.49      
Apr 26 17:44 6 10 Cloudy SCT009 OVC025 56 53     90%     29.49        
Apr 26 16:53 NW 6 10 Cloudy OVC010 57 55     93%     29.5 29.48 0    
Apr 26 16:42 NW 8 10 Light Rain OVC010 57 55     93%     29.49   0    
Apr 26 16:29 NNW 8 10 Light Rain OVC008 58 56     93%     29.49   0    
Apr 26 15:53 NW 7 10 Light Rain FEW003 OVC012 60 58     93%     29.43   0 0  
Apr 26 15:44 5 10 Cloudy SCT003 SCT007 OVC011 60 59     96%     29.44   0    
Apr 26 15:26 N 6 5 Rain and Fog/Mist BKN003 BKN011 OVC090 62 61     96%     29.43   0    
Apr 26 15:19 Calm 3 Light Rain and Fog/Mist SCT008 BKN046 OVC090 62 61     96%     29.46   0    
Apr 26 15:14 3 2 Rain and Fog/Mist SCT012 BKN070 OVC090 62 61     96%     29.45   0    
Apr 26 14:53 SE 3 7 Light Rain   62 62     100%     29.5 29.47 0    
Apr 26 14:28 5 8 Light Rain BKN004 BKN050 OVC100 62 61     96%     29.44   0    
Apr 26 14:04 Calm 3 Light Rain and Fog/Mist FEW004 BKN030 OVC090 62 60     93%     29.46   0    
Apr 26 13:57 Calm 1.75 Heavy Rain and Fog/Mist FEW004 BKN036 OVC090 62 61     96%     29.44   0    
Apr 26 13:53 Calm 3 Rain and Fog/Mist FEW004 BKN041 OVC090 62 62     100%     29.46 29.43 0    
Apr 26 13:15 Calm 5 Rain and Fog/Mist FEW006 SCT055 OVC100 62 62     100%     29.47   0    
Apr 26 13:07 SE 6 2 Heavy Rain and Fog/Mist SCT055 BKN075 OVC095 62 61     96%     29.48   0    
Apr 26 12:53 Calm 7 Rain BKN075 OVC095 63 60     90%     29.47 29.45 0   2
Apr 26 12:26 Calm 8 Light Rain FEW003 BKN080 OVC095 62 60     93%     29.5   0    
Apr 26 12:14 SE 7 5 Rain and Fog/Mist FEW003 BKN023 OVC075 62 60     93%     29.52   0    
Apr 26 12:10 SSE 5 2 Rain and Fog/Mist BKN021 OVC075 62 60     93%     29.52   0    
Apr 26 12:02 ESE 5 0.5 Heavy Rain and Fog BKN023 OVC046 62 60     93%     29.5   0    
Apr 26 11:53 SSE 6 0.25 Heavy Rain and Fog BKN018 OVC044 62 61     96%     29.54 29.52 1    
Apr 26 11:38 3 0.5 Rain and Fog BKN019 BKN035 OVC044 61 60     97%     29.51   1    
Apr 26 11:31 Calm 0.25 Heavy Rain and Fog SCT017 BKN036 OVC043 62 60     93%     29.54   0    
Apr 26 11:05 3 1.5 Rain and Fog/Mist SCT021 OVC036 61 59     93%     29.52   0    
Apr 26 10:53 3 0.5 Heavy Rain and Fog FEW011 BKN016 OVC033 62 60     93%     29.54 29.52 0    
Apr 26 10:47 7 0.75 Heavy Rain and Fog/Mist BKN014 BKN023 OVC034 63 61     94%     29.54   0    
Apr 26 10:44 NW 7 2.5 Light Rain and Fog/Mist BKN014 BKN023 OVC034 63 60     90%     29.54   0    
Apr 26 10:35 NW 6 10 Light Rain BKN014 OVC021 64 59     84%     29.52   0    
Apr 26 09:53 7 10 Cloudy SCT016 BKN022 OVC027 71 66     84%   72 29.49 29.46 0 0  
Apr 26 09:44 6 10 Cloudy BKN016 BKN022 OVC027 71 66     84%   72 29.49   0    
Apr 26 08:53 6 10 Cloudy OVC013 71 66     84%   72 29.49 29.45 0    
Apr 26 08:22 7 9 Cloudy BKN013 OVC021 70 66     87%     29.48   0    
Apr 26 07:53 7 7 Light Rain BKN016 BKN020 OVC027 70 66     87%     29.5 29.47 0    
Apr 26 07:50 7 8 Light Rain BKN014 BKN020 OVC027 70 66     88%     29.5   0    
Apr 26 07:18 5 8 Light Rain BKN015 OVC023 70 66     87%     29.5   0    
Apr 26 06:53 SE 6 10 Cloudy OVC014 70 66     87%     29.49 29.46 0   0
Apr 26 05:53 ESE 3 6 Light Rain and Fog/Mist BKN018 OVC023 69 67     93%     29.51 29.47 0    
Apr 26 04:53 3 10 Light Rain OVC026 73 64     73%   73 29.51 29.47 0    
Apr 26 04:38 3 10 Cloudy BKN026 OVC034 73 64     73%   73 29.51        
Apr 26 04:26 3 10 Cloudy SCT028 BKN035 OVC045 73 64     73%   73 29.51        
Apr 26 04:03 3 10 Cloudy BKN028 OVC045 73 64     73%   73 29.5        
Apr 26 03:53 5 10 Cloudy FEW025 BKN030 OVC045 74 63     69%   74 29.5 29.47      
Apr 26 02:53 7 10 Cloudy SCT029 BKN033 OVC047 74 63     69%   74 29.5 29.46      
Apr 26 02:03 3 10 Mostly Cloudy BKN028 BKN038 BKN047 74 63     69%   74 29.51        
Apr 26 00:53 5 10 Mostly Clear FEW025 73 63     71%   73 29.49 29.46      
Apr 25 23:53 S 9 10 Clear CLR 74 63     69%   74 29.51 29.47      
Apr 25 22:53 3 10 Cloudy FEW031 OVC050 75 62     64%   75 29.52 29.49      
Apr 25 20:53 S 8 10 Cloudy FEW037 OVC049 76 61     60%   76 29.51 29.49      
Apr 25 19:53 3 10 Cloudy OVC044 77 61     58%   77 29.51 29.48      
Apr 25 17:53 3 10 Clear   80 61     52%   81 29.51 29.48      
Apr 25 16:53 7 10 Mostly Clear FEW045 81 61     51%   82 29.51 29.49      
Apr 25 15:53 SW 8 10 Clear CLR 81 60     49%   82 29.52 29.49      
Apr 25 14:53 SW 9 10 Mostly Clear FEW041 80 59     49%   81 29.54 29.51      
Apr 25 13:53 S 9 10 Mostly Clear FEW039 78 59     52%   78 29.55 29.52      
Apr 25 12:53 S 9 10 Clear CLR 77 57     50%   77 29.57 29.54      
Apr 25 09:53 3 10 Clear CLR 69 53     57%     29.63 29.62      
Apr 25 08:53 3 10 Clear CLR 66 50     56%     29.64 29.62      
Apr 25 07:53 5 10 Clear CLR 64 51     63%     29.64 29.61      
Apr 25 06:53 7 10 Clear CLR 63 50     63%     29.64 29.61      
Apr 25 04:53 Calm 10 Clear CLR 63 45     52%     29.64 29.61      
Apr 25 03:53 7 10 Clear CLR 65 42     43%     29.65 29.62      
Apr 25 02:53 3 10 Clear CLR 66 41     40%     29.66 29.63      
Apr 25 01:53 S 6 10 Clear CLR 67 40     37%     29.68 29.65      
Apr 25 00:53 Calm 10 Clear CLR 67 39     36%     29.69 29.66      
Notice The following observation data may not be complete
Apr 24 23:53 3 10 Clear CLR   40      %     29.7 29.67      
Apr 24 22:53 Calm 10 Clear CLR 61 46     58%     29.71 29.69      
Apr 24 21:53 Calm 10 Clear CLR 59 46     62%     29.71 29.7      
Apr 24 20:53 Calm 10 Clear CLR 63 44     50%     29.7 29.69      
Apr 24 19:53 Calm 10 Clear CLR 70 42     36%     29.7 29.69      
Apr 24 18:53 5 10 Clear CLR 73 38     28%   71 29.71 29.7      
Apr 24 17:53 S 3 10 Clear CLR 75 37     25%   73 29.73 29.72      
Apr 24 16:53 6 10 Clear CLR 78 35     21%   77 29.75 29.74      
Apr 24 13:53 Calm 10 Clear CLR 75 31     20%   73 29.85 29.83      
Apr 24 12:53 Calm 10 Clear CLR 74 37     26%   72 29.89 29.88      
Apr 24 11:53 ESE 5 10 Clear CLR 73 39     29%   71 29.93 29.92      
Apr 24 09:53 Calm 10 Clear CLR 63 44     50%     29.97 29.97      
Apr 24 07:53 Calm 10 Clear CLR 45 42     90%     29.97 29.97      
Apr 24 06:53 Calm 10 Clear CLR 40 38     93%     29.97 29.97      
Apr 24 05:53 Calm 10 Clear CLR 41 38     89%     29.95 29.94      
Apr 24 04:53 Calm 10 Clear CLR 42 39     89%     29.94 29.93      
Apr 24 03:53 Calm 10 Clear CLR 43 41     93%     29.92 29.92      
Apr 24 02:53 Calm 10 Clear CLR 45 42     90%     29.92 29.91      
Apr 24 01:53 Calm 10 Clear CLR 45 42     90%     29.91 29.91      
Apr 24 00:53 Calm 10 Clear CLR 45 43     93%     29.91 29.91      
Apr 23 23:53 Calm 10 Clear CLR 47 44     90%     29.94 29.94      
Apr 23 22:53 Calm 10 Clear CLR 50 44     80%     29.97 29.96      
Apr 23 21:53 Calm 10 Clear CLR 53 46     77%     29.98 29.98      
Apr 23 20:53 Calm 10 Clear CLR 56 44     64%     29.97 29.97      
Apr 23 19:53 WNW 3 10 Clear CLR 62 42     48%     29.97 29.97      
Apr 23 17:53 NNW 9 10 Clear CLR 72 32     23%   70 29.97 29.96      
Apr 23 16:53 3 10 Clear CLR 74 38     27%   72 29.97 29.96      
Apr 23 15:53 Calm 10 Clear CLR 71 32     24%   69 29.98 29.97      
Apr 23 14:53 5 10 Clear CLR 70 34     26%     29.99 29.98      
Apr 23 13:53 5 10 Clear CLR 68 35     30%     30.01 30      
Apr 23 12:53 7 10 Clear CLR 65 35     33%     30.03 30.02      
Apr 23 10:53 NNW 5 10 Clear CLR 61 40     46%     30.05 30.04      
Apr 23 08:53 NNW 7 10 Clear CLR 55 44     66%     30.05 30.05      
Apr 23 07:53 NW 5 10 Clear CLR 51 44     77%     30.05 30.05      
Apr 23 05:53 3 10 Cloudy OVC060 49 45     86% 48   30.02 30.02      
Apr 23 04:53 5 10 Cloudy OVC055 50 45     83% 48   30.01 30.01      
Apr 23 03:53 3 10 Cloudy OVC049 50 46     86% 49   30.01 30.01      
Apr 23 02:53 NNW 3 10 Cloudy SCT029 OVC036 50 45     83% 49   30.01 30.01      
Apr 23 01:53 NNW 3 10 Cloudy OVC028 51 45     79%     30.02 30.02      
Apr 23 01:06 Calm 10 Cloudy SCT018 BKN025 OVC049 51 45     79%     30.03        
Apr 23 00:53 6 10 Cloudy FEW018 OVC047 51 45     79%     30.03 30.03      
Apr 23 00:02 3 10 Cloudy SCT014 OVC043 51 46     83%     30.03        
Apr 22 23:53 3 10 Cloudy BKN014 OVC041 51 46     83%     30.03 30.03      
Apr 22 23:42 3 10 Cloudy BKN014 OVC022 51 47     86%     30.03        
Apr 22 23:22 NNW 3 10 Cloudy FEW009 SCT014 OVC022 51 48     89%     30.03        
Apr 22 23:01 5 9 Cloudy BKN025 OVC033 51 47     86%     30.03        
Apr 22 22:53 Calm 10 Cloudy SCT025 BKN030 OVC035 51 47     86%     30.03 30.03      
Apr 22 22:43 NW 5 10 Cloudy FEW027 OVC035 51 47     86%     30.03        
Apr 22 22:27 NW 5 10 Cloudy FEW012 BKN027 OVC035 51 47     86%     30.03        
Apr 22 22:07 NNW 6 10 Cloudy SCT025 BKN033 OVC041 51 47     86%     30.03        
Apr 22 21:53 3 10 Cloudy BKN025 OVC040 51 47     86%     30.03 30.03      
Apr 22 20:53 7 10 Cloudy OVC019 52 46     80%     30.01 30.01      
Apr 22 19:53 NW 6 10 Cloudy OVC019 53 45     74%     30 30      
Apr 22 17:53 NNW 8 10 Cloudy OVC017 55 47     74%     29.98 29.97      
Apr 22 16:53 NW 8 10 Cloudy BKN019 BKN025 OVC046 57 48     72%     29.96 29.95      
Apr 22 16:31 NNW 13 10 Cloudy SCT024 OVC045 60 48     64%     29.94        
Apr 22 16:04 WNW 8 10 Cloudy BKN023 OVC043 59 49     69%     29.94        
Apr 22 15:53 NW 13 10 Cloudy SCT024 SCT029 OVC042 59 48     67%     29.94 29.93      
Apr 22 15:02 6 10 Cloudy SCT027 OVC035 60 49     67%     29.94        
Apr 22 14:42 NW 8 10 Cloudy BKN028 OVC037 59 49     69%     29.94        
Apr 22 14:28 7 10 Cloudy FEW026 OVC033 61 50     67%     29.93        
Apr 22 13:53 NNW 9 10 Cloudy BKN025 OVC031 60 50     69%     29.93 29.92      
Apr 22 12:53 7 10 Cloudy OVC019 60 50     69%     29.93 29.92      
Apr 22 12:25 7 10 Cloudy OVC017 59 52     78%     29.93        
Apr 22 10:53 NNW 8 10 Cloudy OVC011 57 52     83%     29.92 29.91      
Apr 22 10:50 5 10 Cloudy OVC011 55 52     88%     29.92        
Apr 22 10:24 7 10 Cloudy OVC009 55 51     86%     29.92        
Apr 22 09:53 5 10 Cloudy OVC010 55 52     89%     29.91 29.91      
Apr 22 08:53 6 10 Cloudy OVC011 56 53     90%     29.9 29.88      
Apr 22 08:24 3 10 Cloudy SCT008 OVC013 57 55     93%     29.89        
Apr 22 07:53 3 4 Fog/Mist OVC006 58 56     93%     29.88 29.86      
Apr 22 07:41 Calm 6 Fog/Mist OVC008 58 55     90%     29.88        
Apr 22 07:19 Calm 10 Cloudy SCT003 OVC011 58 56     93%     29.86        
Apr 22 06:53 5 3 Fog/Mist OVC003 58 57     97%     29.85 29.83     0
Apr 22 06:32 Calm 4 Fog/Mist BKN003 OVC009 58 56     93%     29.84        
Apr 22 06:25 Calm 6 Fog/Mist SCT003 BKN010 OVC015 58 56     93%     29.84        
Apr 22 06:10 Calm 4 Fog/Mist BKN003 OVC009 57 56     96%     29.83        
Apr 22 05:53 Calm 2.5 Fog/Mist OVC003 57 55     93%     29.83 29.82      
Apr 22 05:20 NNW 3 2 Fog/Mist OVC003 58 56     93%     29.83        
Apr 22 04:53 5 5 Fog/Mist OVC003 58 56     93%     29.82 29.81      
Apr 22 04:48 N 5 6 Fog/Mist OVC003 57 55     94%     29.82        
Apr 22 04:20 Calm 10 Cloudy OVC006 59 57     93%     29.81        
Apr 22 03:53 Calm 10 Cloudy OVC004 60 58     93%     29.8 29.79   0  
Apr 22 02:53 6 10 Cloudy BKN005 OVC010 62 59     90%     29.8 29.78 0    
Apr 22 02:44 Calm 10 Cloudy OVC005 63 61     93%     29.8   0    
Apr 22 02:20 Calm 7 Cloudy BKN003 OVC008 64 62     93%     29.79   0    
Apr 22 01:53 ESE 3 7 Light Rain OVC005 64 62     93%     29.79 29.77 0    
Apr 22 01:04 Calm 9 Light Rain BKN005 OVC050 64 63     96%     29.8   0    
Apr 22 00:53 Calm 4 Rain and Fog/Mist SCT005 OVC050 64 63     96%     29.8 29.78 1   2
Apr 22 00:34 SE 3 3 Rain and Fog/Mist FEW005 BKN050 OVC065 65 63     93%     29.81   1    
Apr 22 00:30 Calm 2 Rain and Fog/Mist SCT006 BKN025 OVC065 64 63     96%     29.81   1    
Apr 22 00:15 Calm 3 Rain and Fog/Mist FEW004 BKN019 OVC070 64 62     93%     29.79   1    
Apr 22 00:10 3 1 Heavy Rain and Fog/Mist FEW004 BKN015 OVC043 64 62     93%     29.79   1    
Apr 22 00:00 5 0.5 Heavy Rain and Fog FEW004 BKN008 OVC015 64 63     96%     29.79   0    
Apr 21 23:53 NNW 11 1 Heavy Rain and Fog/Mist FEW004 OVC013 64 64     100%     29.82 29.8 1    
Apr 21 23:41 5 1.75 Heavy Rain and Fog/Mist FEW006 BKN013 OVC018 65 63     93%     29.78   0    
Apr 21 23:38 6 2.5 Heavy Rain and Fog/Mist SCT010 BKN015 OVC024 65 63     93%     29.78   0    
Apr 21 23:34 N 5 2.5 Rain and Fog/Mist BKN012 BKN033 OVC048 65 63     93%     29.76   0    
Apr 21 22:53 7 10 Light Rain BKN013 OVC110 66 62     87%     29.73   0    
Apr 21 22:48 E 7 10 Light Rain BKN013 BKN110 66 63     88%     29.75   0    
Apr 21 22:14 ESE 5 10 Mostly Cloudy SCT014 SCT075 BKN100 66 63     90%     29.78        
Apr 21 21:53 SE 5 10 Mostly Cloudy BKN014 67 62     84%     29.79 29.76      
Apr 21 21:07 Calm 10 Cloudy OVC013 68 62     81%     29.79        
Apr 21 20:53 ESE 3 10 Cloudy OVC015 68 62     81%     29.78 29.75      
Apr 21 20:37 ESE 3 10 Mostly Cloudy BKN016 67 63     87%     29.75        
Apr 21 19:07 ESE 3 10 Partly Cloudy SCT016 SCT090 68 63     84%     29.78        
Apr 21 18:53 SE 3 10 Cloudy BKN016 OVC090 69 63     81%     29.79 29.77     0
Apr 21 18:46 3 10 Cloudy OVC015 69 62     78%     29.79        
Apr 21 17:53 5 10 Cloudy OVC013 68 61     78%     29.8 29.78      
Apr 21 16:53 Calm 10 Cloudy OVC012 68 61     78%     29.81 29.79      
Apr 21 15:53 5 10 Cloudy OVC012 66 60     81%     29.83 29.81 0 0  
Apr 21 15:26 Calm 10 Mostly Cloudy BKN013 67 60     79%     29.86   0    
Apr 21 15:12 6 10 Partly Cloudy SCT013 SCT060 68 60     76%     29.87   0    
Apr 21 14:53 5 10 Light Rain BKN014 OVC095 66 60     81%     29.88 29.86 0    
Apr 21 14:40 Calm 10 Cloudy BKN014 OVC100 67 60     79%     29.89        
Apr 21 13:53 E 7 10 Cloudy SCT014 BKN034 OVC070 66 58     75%     29.9 29.88 0    
Apr 21 13:48 3 10 Cloudy SCT014 BKN034 OVC042 66 59     78%     29.9   0    
Apr 21 12:53 ESE 5 10 Light Rain OVC016 64 60     87%     29.9 29.88 0   0
Apr 21 11:53 5 10 Cloudy OVC018 65 56     73%     29.91 29.9      
Apr 21 11:17 5 10 Cloudy OVC015 64 56     75%     29.92        
Apr 21 10:53 7 10 Cloudy OVC014 64 57     78%     29.92 29.9      
Apr 21 10:46 7 10 Cloudy OVC013 65 58     78%     29.92        
Apr 21 10:23 NNW 3 9 Cloudy BKN015 OVC070 73 67     81%   74 29.92        
Apr 21 10:15 Calm 9 Cloudy BKN014 BKN070 OVC090 72 66     82%   73 29.92        
Apr 21 09:53 3 9 Mostly Cloudy FEW075 BKN090 73 67     81%   74 29.91 29.89   0  
Apr 21 08:53 Calm 9 Mostly Clear FEW075 FEW110 69 67     93%     29.93 29.91 0    
Apr 21 07:53 Calm 6 Fog/Mist BKN070 OVC095 65 63     93%     29.94 29.92      
Apr 21 06:53 Calm 3 Fog/Mist CLR 63 61     93%     29.92 29.89      
Apr 21 05:53 Calm 4 Fog/Mist CLR 63 61     93%     29.9 29.88      
Apr 21 04:53 Calm 5 Fog/Mist FEW090 63 61     93%     29.92 29.89      
Apr 21 02:53 Calm 4 Fog/Mist FEW080 63 61     93%     29.93 29.91      
Apr 21 01:53 Calm 5 Fog/Mist FEW090 63 62     97%     29.96 29.93      
Apr 21 00:53 Calm 5 Fog/Mist CLR 64 62     93%     29.97 29.95      
Apr 20 23:53 Calm 5 Fog/Mist CLR 65 63     93%     29.99 29.96      
Apr 20 22:53 Calm 6 Fog/Mist CLR 66 64     93%     29.99 29.96      
Apr 20 21:53 Calm 10 Clear CLR 67 65     93%     29.99 29.96      
Apr 20 20:53 Calm 10 Clear CLR 70 65     84%     29.98 29.95      
Apr 20 19:53 Calm 10 Clear CLR 75 63     66%   75 29.97 29.94      
Apr 20 18:53 Calm 10 Mostly Clear FEW037 79 63     58%   79 29.97 29.94      
Apr 20 17:53 5 10 Clear CLR 80 62     54%   81 29.97 29.94      
Apr 20 16:53   10 Clear CLR 80 62     54%   81 29.98 29.95      
Apr 20 15:53 W 7 10 Mostly Cloudy FEW039 SCT050 BKN060 80 60     51%   81 30 29.96      
Apr 19 15:53 6 10 Mostly Clear FEW047 FEW055 81 59     47%   81 30.04 30.01      
Apr 19 14:53   10 Mostly Clear FEW048 81 59     47%   81 30.06 30.03      
Apr 19 13:53   10 Mostly Clear FEW043 81 60     49%   82 30.07 30.04      
Apr 19 12:53 5 10 Partly Cloudy SCT040 79 60     52%   79 30.09 30.06      
Apr 19 11:53 5 10 Partly Cloudy SCT031 77 61     58%   77 30.1 30.07      
Apr 19 10:53 S 8 10 Partly Cloudy SCT025 75 63     66%   75 30.11 30.08      
Apr 19 09:53 7 10 Mostly Clear FEW016 72 63     73%   72 30.11 30.08      
Apr 19 09:22 6 10 Mostly Clear FEW015 70 64     81%     30.1        
Apr 19 08:53 Calm 10 Mostly Cloudy BKN015 BKN019 70 65     84%     30.1 30.08      
Apr 19 08:44 3 10 Mostly Cloudy BKN015 BKN020 69 65     87%     30.1        
Apr 19 07:53   10 Mostly Clear FEW015 67 64     90%     30.09 30.06      
Apr 19 06:53 Calm 10 Clear CLR 63 61     93%     30.07 30.05      
Apr 19 05:53 Calm 7 Clear CLR 61 59     93%     30.07 30.05      
Apr 19 04:53 Calm 10 Clear CLR 61 60     97%     30.06 30.03      
Apr 19 03:53 Calm 10 Clear CLR 64 61     90%     30.04 30.02      
Apr 19 02:53 Calm 10 Clear CLR 63 61     93%     30.04 30.01      
Apr 19 01:53 Calm 10 Clear CLR 66 62     87%     30.05 30.02      
Apr 19 00:53 Calm 10 Clear CLR 66 64     93%     30.06 30.03      
Apr 18 22:53   10 Clear CLR 70 66     87%     30.07 30.05      
Apr 18 21:53 Calm 10 Clear CLR 72 66     82%   73 30.06 30.04      
Apr 18 20:53 Calm 10 Clear CLR 68 65     90%     30.04 30.03      
Apr 18 19:53 Calm 10 Clear CLR 73 64     73%   73 30.02 29.99      
Apr 18 18:53 S 3 10 Clear CLR 78 63     60%   78 30.02 30      
Apr 18 17:53 5 10 Mostly Cloudy BKN043 81 61     51%   82 30.01 29.98      
Apr 18 16:53 ESE 5 10 Partly Cloudy FEW043 FEW050 SCT065 80 61     52%   81 30.01 29.98      
Apr 18 15:53 5 10 Partly Cloudy SCT039 79 62     56%   79 30.02 30      
Apr 18 14:53 Calm 10 Mostly Cloudy BKN036 BKN048 77 62     60%   77 30.04 30.02      
Apr 18 13:53 3 10 Mostly Clear FEW033 77 63     62%   77 30.05 30.03      
Apr 18 12:53 Calm 10 Partly Cloudy SCT021 75 64     69%   75 30.06 30.04      
Apr 18 12:16 Calm 10 Partly Cloudy SCT017 71 63     76%   71 30.07        
Apr 18 12:01 Calm 10 Mostly Cloudy BKN015 71 63     76%   71 30.07        
Apr 18 11:53 Calm 10 Partly Cloudy SCT013 71 62     73%   71 30.07 30.05      
Apr 18 11:21 3 10 Mostly Cloudy BKN011 68 63     84%     30.07        
Apr 18 10:53 NNE 3 10 Cloudy BKN008 OVC011 67 64     90%     30.07 30.06      
Apr 18 10:41 Calm 10 Cloudy BKN006 OVC011 65 63     93%     30.07        
Apr 18 09:53 Calm 6 Fog/Mist OVC003 63 62     97%     30.07 30.05      
Apr 18 09:48 Calm 8 Cloudy OVC002 63 63     100%     30.07        
Apr 18 09:41 Calm 2.5 Fog/Mist OVC002 63 62     97%     30.06        
Apr 18 08:53 Calm 0.5 Fog VV003 61 61     100%     30.07 30.06      
Apr 18 08:48 Calm 0.25 Fog VV003 61 61     100%     30.07        
Apr 18 08:17 Calm 0.5 Fog VV003 60 60     100%     30.07        
Apr 18 07:53 Calm 0.25 Fog VV003 60 59     96%     30.06 30.05      
Apr 18 06:21 Calm 0.75 Fog/Mist VV003 58 57     97%     30.04        
Apr 18 05:53 Calm 1.75 Fog/Mist OVC002 58 57     97%     30.03 30.02      
Apr 18 05:43 Calm 2 Fog/Mist OVC003 58 57     97%     30.03        
Apr 18 05:31 Calm 1.5 Fog/Mist OVC003 57 57     100%     30.03        
Apr 18 05:12 Calm 0.75 Fog/Mist VV003 57 57     100%     30.04        
Apr 18 05:01 Calm 1 Fog/Mist VV004 57 57     100%     30.04        
Apr 18 04:53 Calm 0.75 Fog/Mist VV004 57 57     100%     30.04 30.03      
Apr 18 04:46 Calm 0.5 Fog VV004 57 57     100%     30.04        
Apr 18 03:53 Calm 0.25 Fog VV002 57 56     96%     30.03 30.02      
Apr 18 02:53 Calm 0.25 Fog VV002 57 56     96%     30.03 30.02      
Apr 18 02:12 Calm 0.25 Fog VV002 57 56     96%     30.02        
Apr 18 01:53 Calm 0.5 Fog VV002 57 57     100%     30.02 30.01      
Apr 18 01:32 Calm 0.5 Fog VV002 57 56     96%     30.03        
Apr 18 01:24 Calm 0.25 Fog VV002 57 56     96%     30.03        
Apr 18 01:15 Calm 0.5 Fog VV002 57 57     100%     30.03        
Apr 18 01:06 Calm 1 Fog/Mist OVC002 57 57     100%     30.03        
Apr 18 00:53 Calm 0.5 Fog VV003 57 57     100%     30.03 30.02      
Apr 18 00:26 Calm 0.75 Clear   58 57     97%     30.04        
Apr 18 00:08 Calm 1.75 Clear   58 57     97%     30.04        
Apr 17 23:53 Calm 0.75 Clear   59 58     96%     30.04 30.03      
Apr 17 23:37 Calm 0.75 Fog/Mist VV002 59 58     96%     30.04        
Apr 17 23:35 Calm 1 Fog/Mist OVC001 59 58     96%     30.04        
Apr 17 22:53 Calm 0.75 Fog/Mist BKN001 59 58     96%     30.04 30.03      
Apr 17 22:46 Calm 1 Fog/Mist VV001 59 58     96%     30.04        
Apr 17 22:29 Calm 0.75 Fog/Mist VV002 60 59     96%     30.04        
Apr 17 22:04 Calm 1.75 Fog/Mist FEW001 61 60     97%     30.04        
Apr 17 21:58 Calm 3 Fog/Mist FEW001 61 60     97%     30.04        
Apr 17 21:53 Calm 1.25 Fog/Mist SCT002 61 60     97%     30.04 30.03      
Apr 17 21:47 Calm 1.75 Fog/Mist FEW002 61 61     100%     30.03        
Apr 17 20:53 Calm 6 Fog/Mist FEW002 62 61     96%     30.02 30.01      
Apr 17 19:53 Calm 10 Clear CLR 63 62     97%     30 29.99      
Apr 17 17:53 ESE 3 10 Cloudy FEW011 SCT016 OVC042 66 64     93%     30.01 29.99 0    
Apr 17 14:53 Calm 10 Cloudy SCT013 OVC022 68 61     78%     30 29.98 0    
Apr 17 14:51 Calm 10 Cloudy SCT013 OVC022 68 63     83%     30   0    
Apr 17 14:16 Calm 10 Mostly Cloudy SCT010 BKN014 BKN038 66 62     87%     30   0    
Apr 17 13:53 Calm 9 Light Rain FEW008 OVC100 65 62     90%     30.03 30.01 0    
Apr 17 13:20 W 5 10 Light Rain FEW008 FEW065 OVC095 64 61     90%     30.06   0    
Apr 17 12:53 3 10 Light Rain OVC095 64 61     90%     30.08 30.06 0   0
Apr 17 11:53 Calm 4 Rain and Fog/Mist FEW060 OVC090 63 61     93%     30.12 30.11 0    
Apr 17 11:22 WSW 3 4 Rain and Fog/Mist FEW004 BKN075 OVC090 63 62     97%     30.13   0    
Apr 17 10:53 NW 6 10 Light Rain OVC095 63 62     97%     30.11 30.09 0    
Apr 17 09:53 3 7 Light Rain FEW004 OVC095 63 61     93%     30.08 30.06 0 0  
Apr 17 08:53 3 10 Mostly Cloudy FEW002 SCT095 BKN120 62 61     96%     30.06 30.04 0    
Apr 17 08:49 Calm 10 Mostly Cloudy FEW002 SCT100 BKN120 63 61     94%     30.06   0    
Apr 17 07:53 Calm 4 Rain and Fog/Mist FEW060 SCT075 OVC090 62 61     96%     30.06 30.04 0    
Apr 17 06:53 W 3 5 Light Rain and Fog/Mist BKN050 OVC065 63 61     93%     30.06 30.03 0   0
Apr 17 06:26 Calm 4 Light Rain and Fog/Mist FEW020 BKN046 OVC055 63 61     93%     30.05   0    
Apr 17 06:16 Calm 2 Rain and Fog/Mist FEW019 BKN032 OVC048 63 61     93%     30.05   0    
Apr 17 06:11 NNE 3 1.75 Heavy Rain and Fog/Mist FEW016 BKN027 OVC044 64 60     87%     30.06   0    
Apr 17 05:53 NW 6 10 Cloudy SCT019 BKN026 OVC032 64 62     93%     30.05 30.02      
Apr 17 05:44 WNW 6 10 Cloudy BKN019 BKN024 OVC048 64 62     93%     30.05        
Apr 17 04:53 Calm 10 Mostly Cloudy FEW065 BKN100 63 61     93%     30.01 29.98      
Apr 17 03:53 Calm 10 Clear   63 61     93%     30.02 29.99      
Apr 17 02:53 SE 3 10 Cloudy FEW050 OVC085 64 62     93%     30.01 29.98      
Apr 17 01:53 Calm 10 Cloudy SCT049 OVC065 62 60     93%     30.02 30      
Apr 17 00:53 Calm 9 Clear CLR 61 59     93%     30.04 30.02      
Apr 16 23:53 Calm 10 Clear CLR 62 61     96%     30.03 30.01      
Apr 16 22:53 Calm 10 Clear CLR 64 61     90%     30.01 29.99      
Apr 16 21:53 Calm 10 Clear CLR 66 62     87%     30.03 30.01      
Apr 16 20:53 Calm 10 Clear CLR 68 63     84%     30.05 30.02      
Apr 16 19:53 Calm 10 Clear CLR 71 62     73%   71 30.04 30.01      
Apr 16 18:53 Calm 10 Clear CLR 78 60     54%   78 30.02 29.99      
Apr 16 17:53 SSW 6 10 Clear CLR 79 59     50%   79 30.01 29.98      
Apr 16 16:53 3 10 Mostly Clear FEW044 78 58     50%   78 30.01 29.98      
Apr 16 15:53 7 10 Clear CLR 78 59     52%   78 30.02 29.99      
Apr 16 14:53 S 8 10 Clear CLR 78 59     52%   78 30.04 30.01      
Apr 16 13:53 SSW 8 10 Partly Cloudy SCT080 77 59     54%   77 30.08 30.05      
Apr 16 12:53 NNW 5 10 Partly Cloudy SCT035 SCT075 75 59     57%   75 30.14 30.11     0
Apr 16 12:08 7 10 Mostly Cloudy BKN030 BKN075 73 59     61%   73 30.15        
Apr 16 11:53   10 Mostly Cloudy BKN028 74 58     57%   74 30.14 30.12      
Apr 16 11:43 3 10 Mostly Cloudy BKN028 74 60     62%   74 30.14        
Apr 09 00:53 SSW 9 10 Clear CLR 70 50     49%     29.87 29.84      
Apr 08 23:53 S 8 10 Clear CLR 70 50     49%     29.87 29.84      
Apr 08 22:53 6 10 Clear CLR 71 49     45%   70 29.88 29.85      
Apr 08 21:53 SSW 8 10 Clear CLR 72 48     43%   71 29.88 29.86      
Apr 08 20:53 S 5 10 Clear CLR 72 47     41%   71 29.87 29.85      
Apr 08 19:53 3 10 Clear CLR 73 47     39%   72 29.86 29.84      
Apr 08 18:53 SSW 8 10 Clear CLR 75 46     36%   74 29.88 29.86      
Apr 08 17:53   10 Clear CLR 78 44     30%   77 29.88 29.86      
Apr 08 16:53 7 10 Clear CLR 78 41     27%   77 29.9 29.88      
Apr 08 15:53 SSW 8 10 Clear CLR 77 44     31%   76 29.91 29.9      
Apr 08 14:53 7 10 Clear CLR 77 46     33%   76 29.94 29.92      
Apr 08 13:53 6 10 Clear CLR 76 49     39%   75 29.96 29.95      
Apr 08 12:53 WSW 9 10 Clear CLR 74 45     36%   73 29.99 29.98      
Apr 08 11:53   10 Clear CLR 72 48     43%   71 30.01 30      
Apr 08 10:53   10 Clear CLR 69 47     45%     30.02 30.01      
Apr 08 09:53 7 10 Clear CLR 66 48     52%     30.03 30.01      
Apr 08 08:53 Calm 10 Clear CLR 63 46     54%     30.03 30.02      
Apr 08 07:53 Calm 10 Clear CLR 56 44     64%     30.04 30.03      
Apr 08 06:53 SE 5 10 Clear CLR 55 42     62%     30.03 30.01      
Notice The following observation data may not be complete
Apr 08 05:53 3 10 Clear CLR   41      %     30.02 30      
Apr 08 04:53 Calm 10 Clear CLR 47 44     90%     30.02 30.01      
Apr 08 03:53 Calm 10 Clear CLR 48 45     89%     30.02 30.01      
Apr 08 02:53 Calm 10 Clear CLR 49 45     86%     30.03 30.02      
Apr 08 01:53 Calm 10 Clear CLR 49 46     90%     30.04 30.03      
Apr 08 00:53 Calm 10 Clear CLR 52 44     74%     30.05 30.04      
Apr 07 23:53 Calm 10 Clear CLR 52 44     74%     30.07 30.07      
Apr 07 22:53 Calm 10 Clear CLR 55 45     69%     30.07 30.07      
Apr 07 21:53 Calm 10 Clear CLR 58 42     55%     30.09 30.08      
Apr 07 20:53 Calm 10 Clear CLR 60 42     51%     30.08 30.08      
Apr 07 19:53 Calm 10 Clear CLR 67 38     34%     30.07 30.07      
Apr 07 18:53 Calm 10 Clear CLR 71 34     26%   69 30.07 30.07      
Apr 07 17:53 3 10 Clear CLR 73 33     23%   71 30.08 30.08      
Apr 07 16:53 Calm 10 Clear CLR 74 30     20%   72 30.09 30.09      
Apr 07 15:53 Calm 10 Clear CLR 74 31     20%   72 30.12 30.11      
Apr 07 14:53 5 10 Clear CLR 71 28     20%   69 30.15 30.15      
Apr 07 13:53 Calm 10 Clear CLR 68 27     21%     30.19 30.19      
Apr 07 12:53 SSW 5 10 Clear CLR 64 27     24%     30.22 30.22      
Apr 07 11:53 NE 3 10 Clear CLR 62 28     27%     30.25 30.25      
Apr 07 10:53 SSE 6 10 Clear CLR 58 29     33%     30.27 30.27      
Apr 07 09:53 Calm 10 Clear CLR 57 31     37%     30.26 30.27      
Apr 07 08:53 Calm 10 Clear CLR 50 40     68%     30.26 30.26      
Apr 07 07:53 Calm 10 Clear CLR 38 37     97%     30.24 30.25      
Apr 07 06:53 Calm 10 Clear CLR 36 34     92%     30.22 30.23      
Apr 07 05:53 Calm 10 Clear CLR 37 34     89%     30.21 30.21      
Apr 07 04:53 Calm 10 Clear CLR 38 36     92%     30.19 30.19      
Apr 07 03:53 Calm 10 Clear CLR 39 37     93%     30.19 30.19      
Apr 07 02:53 Calm 10 Clear CLR 40 38     93%     30.21 30.21      
Apr 07 01:53 Calm 10 Clear CLR 42 38     85%     30.21 30.21      
Apr 07 00:53 Calm 10 Clear CLR 44 40     85%     30.21 30.21      
Apr 06 23:53 NW 3 10 Clear CLR 48 37     66% 47   30.2 30.19      
Apr 06 22:53 WNW 3 10 Clear CLR 48 39     71% 47   30.19 30.19      
Apr 06 21:53 Calm 10 Clear CLR 51        %     30.18 30.18      
Apr 06 20:53 WNW 3 10 Clear CLR 57 30     36%     30.15 30.15      
Apr 06 19:53 NW 3 10 Clear CLR 62 28     27%     30.13 30.13      
Apr 06 18:53 6 10 Clear CLR 65 25     22%     30.12 30.12      
Apr 06 17:53 NW 8 10 Clear CLR 67 25     20%     30.12 30.11      
Apr 06 16:53 NW 11 10 Clear CLR 68 25     20%     30.12 30.11      
Apr 06 15:53 NW 14 10 Clear CLR 67 24     20%     30.13 30.12      
Apr 06 14:53 NNW 9 10 Clear CLR 67 29     24%     30.14 30.13      
Apr 06 13:53 NW 8 10 Clear CLR 66 31     27%     30.15 30.15      
Apr 06 12:53 NNW 8 10 Clear CLR 64 29     27%     30.17 30.16      
Apr 06 11:53 NNW 11 10 Clear CLR 61 33     35%     30.19 30.18      
Apr 06 10:53 5 10 Clear CLR 60 34     37%     30.19 30.19      
Apr 06 09:53 3 10 Clear CLR 57 36     45%     30.17 30.17      
Apr 06 08:53 5 10 Clear CLR 52 37     57%     30.16 30.16      
Apr 06 07:53 W 3 10 Clear CLR 46 39     76% 45   30.14 30.14      
Apr 06 06:53 Calm 10 Clear CLR 43 39     86%     30.1 30.11      
Apr 06 05:53 Calm 10 Clear CLR 44 40     85%     30.07 30.07      
Apr 06 04:53 3 10 Clear CLR 48 38     68% 47   30.04 30.04      
Apr 06 03:53 Calm 10 Clear CLR 49 38     66%     30.02 30.02      
Apr 06 02:53 NW 5 10 Clear CLR 51 37     59%     30.01 30.01      
Apr 06 01:53 NW 7 10 Clear CLR 52 37     57%     30 30.01      
Apr 06 00:53 7 10 Clear CLR 52 38     59%     30 30      
Apr 05 23:53 5 10 Clear CLR 52 38     59%     29.98 29.98      
Apr 05 22:53 NW 6 10 Clear CLR 53 38     56%     29.99 29.99      
Apr 05 21:53 5 10 Clear CLR 53 39     59%     29.98 29.98      
Apr 05 20:53 Calm 10 Clear CLR 53 40     61%     29.95 29.95      
Apr 05 19:53 7 10 Clear CLR 56 39     53%     29.93 29.93      
Apr 05 18:53 NW 8 10 Clear CLR 58 39     49%     29.92 29.91     0
Apr 05 17:53 NW 9 10 Partly Cloudy FEW050 FEW070 SCT080 59 37     44%     29.9 29.89      
Apr 05 16:53 NW 10 10 Mostly Clear FEW055 59 42     53%     29.88 29.87 0    
Apr 05 15:53 7 10 Mostly Cloudy BKN043 58 41     53%     29.86 29.85 0 0  
Apr 05 14:53 NW 10 10 Clear   55 42     62%     29.84 29.84 0    
Apr 05 14:14 WNW 14 10 Cloudy SCT025 BKN030 OVC047 54 43     66%     29.84        
Apr 05 13:53 7 10 Cloudy BKN024 BKN029 OVC035 53 44     71%     29.83 29.83 0    
Apr 05 12:53 WNW 13 10 Cloudy BKN026 OVC032 53 43     69%     29.81 29.8 0   0
Apr 05 12:41 NW 13 10 Cloudy BKN026 OVC032 53 43     69%     29.8   0    
Apr 05 11:53 WNW 13 8 Light Rain SCT025 BKN030 OVC038 53 45     74%     29.78 29.78 0    
Apr 05 11:00 W 13 10 Cloudy OVC026 54 43     66%     29.76        
Apr 05 10:53 WNW 9 10 Cloudy SCT026 OVC032 54 44     69%     29.75 29.73      
Apr 05 09:53 WNW 9 10 Cloudy BKN023 OVC029 53 44     71%     29.72 29.7      
Apr 05 09:23 WNW 7 10 Cloudy BKN022 OVC029 52 44     74%     29.72        
Apr 05 08:53   10 Cloudy OVC032 53 44     71%     29.7 29.68      
Apr 05 07:53 WNW 7 10 Clear CLR 51 44     77%     29.69 29.67      
Apr 05 07:10 W 9 10 Partly Cloudy FEW025 SCT030 52 45     77%     29.68        
Apr 05 06:53 W 10 10 Cloudy FEW019 OVC027 54 47     77%     29.66 29.64     0
Apr 05 06:01 3 10 Mostly Cloudy BKN023 BKN031 56 53     90%     29.65        
Apr 05 05:53 3 10 Partly Cloudy SCT023 56 53     90%     29.64 29.62      
Apr 05 04:53 5 10 Clear   58 52     81%     29.61 29.59      
Apr 05 03:53 3 10 Clear CLR 60 52     75%     29.61 29.58   0  
Apr 05 02:53 5 10 Mostly Cloudy FEW055 SCT090 BKN110 59 54     83%     29.61 29.59 0    
Apr 05 01:53 ESE 6 8 Light Rain SCT055 BKN070 OVC090 58 56     93%     29.64 29.62 0    
Apr 05 01:34 Calm 3 Heavy Rain and Fog/Mist BKN049 OVC070 58 57     97%     29.68   0    
Apr 05 01:27 NW 6 1.75 Heavy Rain and Fog/Mist SCT047 OVC070 58 57     97%     29.69   0    
Apr 05 00:53 ESE 3 6 Rain and Fog/Mist FEW041 SCT060 OVC080 58 56     93%     29.66 29.64 0   0
Apr 05 00:46 Calm 6 Light Rain and Fog/Mist FEW041 SCT055 OVC080 59 56     90%     29.68   0    
Apr 05 00:37 5 2 Light Rain and Fog/Mist FEW022 BKN055 BKN080 59 56     90%     29.69   0    
Apr 04 23:53 5 8 Light Rain FEW039 BKN080 OVC100 60 57     90%     29.65 29.63 0    
Apr 04 23:48 5 7 Light Rain FEW035 BKN075 OVC100 61 57     88%     29.68   0    
Apr 04 23:41 6 2.5 Heavy Rain and Fog/Mist FEW035 BKN065 OVC080 60 57     90%     29.67   0    
Apr 04 22:53 WNW 7 10 Partly Cloudy SCT090 77 49     37%   76 29.62 29.59      
Apr 04 21:53 5 10 Clear CLR 78 48     35%   77 29.59 29.57      
Apr 04 20:53 S 8 10 Clear CLR 77 52     42%   76 29.58 29.56      
Apr 04 19:53 7 10 Clear CLR 77 53     43%   76 29.58 29.56      
Apr 04 18:53 S 11 10 Clear CLR 80 51     36%   79 29.61 29.59      
Apr 04 17:53 7 10 Clear CLR 82 49     32%   81 29.62 29.6      
Apr 04 16:53 S 13 10 Clear CLR 82 49     32%   81 29.63 29.61      
Apr 04 15:53 3 10 Clear CLR 83 51     33%   81 29.64 29.61      
Apr 04 14:53 5 10 Clear CLR 82 51     34%   81 29.66 29.64      
Apr 04 13:53   10 Clear CLR 80 50     35%   79 29.68 29.66      
Apr 04 12:53 SSE 9 10 Clear CLR 78 53     42%   78 29.72 29.7      
Apr 04 11:53 SE 9 10 Clear CLR 75 52     45%   74 29.74 29.72      
Apr 04 10:53 SE 6 10 Clear CLR 73 54     51%   72 29.75 29.73      
Apr 04 08:53 Calm 10 Clear CLR 57 54     89%     29.76 29.75      
Apr 04 07:53 Calm 10 Clear CLR 50 49     96%     29.76 29.75      
Apr 04 06:53 Calm 10 Clear CLR 48 46     93%     29.75 29.74      
Apr 04 05:53 Calm 10 Clear CLR 48 46     93%     29.74 29.72      
Apr 04 04:53 Calm 9 Clear CLR 50 48     93%     29.72 29.71      
Apr 04 03:53 Calm 10 Clear CLR 50 48     93%     29.72 29.71      
Apr 04 02:53 Calm 10 Clear CLR 52 50     93%     29.72 29.71      
Apr 04 01:53 Calm 10 Clear CLR 52 50     93%     29.72 29.71      
Apr 04 00:53 Calm 10 Clear CLR 54 51     90%     29.72 29.7      
Apr 03 23:53 Calm 10 Clear CLR 54 51     90%     29.73 29.72      
Apr 03 22:53 Calm 10 Clear CLR 56 53     90%     29.71 29.7      
Apr 03 21:53 Calm 10 Clear CLR 59 50     72%     29.69 29.68      
Apr 03 20:53 Calm 10 Clear CLR 61 51     70%     29.67 29.65      
Apr 03 19:53 Calm 10 Clear CLR 67 47     49%     29.65 29.63      
Apr 03 18:53 5 10 Clear CLR 74 44     34%   73 29.62 29.6      
Apr 03 17:53 6 10 Clear CLR 75 44     33%   74 29.6 29.58      
Apr 03 16:53 7 10 Clear CLR 75 48     38%   74 29.6 29.58      
Apr 03 15:53 6 10 Mostly Cloudy BKN060 74 49     41%   73 29.59 29.57      
Apr 03 14:53 6 10 Clear   73 49     43%   72 29.59 29.57      
Apr 03 13:53 6 10 Clear CLR 72 50     46%   71 29.6 29.58      
Apr 03 12:53 7 10 Partly Cloudy SCT041 70 51     51%     29.61 29.59     0
Apr 03 11:53 WSW 9 10 Mostly Cloudy SCT031 BKN041 68 53     59%     29.61 29.59      
Apr 03 11:02 W 8 10 Partly Cloudy SCT023 65 54     68%     29.61        
Apr 03 10:53 W 10 10 Mostly Cloudy BKN023 BKN037 65 55     70%     29.61 29.6      
Apr 03 10:42 6 10 Clear   63 55     75%     29.61        
Apr 03 09:53 W 10 10 Clear   62 56     80%     29.59 29.57 0 0  
Apr 03 09:31 W 9 10 Cloudy SCT015 BKN048 OVC090 61 57     87%     29.6   0    
Apr 03 09:23 W 8 7 Light Rain SCT013 BKN024 OVC075 61 58     90%     29.6   0    
Apr 03 09:12 7 3 Light Rain and Fog/Mist BKN012 BKN027 BKN048 62 59     90%     29.59   0    
Apr 03 08:53 6 10 Partly Cloudy FEW032 SCT049 SCT070 62 59     90%     29.58 29.57 0    
Apr 03 08:00 Calm 10 Mostly Cloudy FEW010 SCT029 BKN060 61 58     90%     29.56        
Apr 03 07:53 Calm 10 Mostly Cloudy SCT010 BKN025 BKN030 61 58     90%     29.56 29.55      
Apr 03 06:53   10 Cloudy OVC010 60 58     93%     29.55 29.53 0   0
Apr 03 05:53 Calm 5 Light Rain and Fog/Mist OVC013 60 58     93%     29.56 29.54 0    
Apr 03 05:23 Calm 5 Fog/Mist OVC011 60 58     93%     29.54        
Apr 03 04:53 3 9 Cloudy OVC009 60 58     93%     29.55 29.54      
Apr 03 03:53 Calm 10 Cloudy OVC009 60 58     93%     29.56 29.55   0  
Apr 03 03:49 Calm 10 Cloudy OVC009 61 57     88%     29.57        
Apr 03 03:13 Calm 6 Fog/Mist FEW006 OVC012 60 59     96%     29.57        
Apr 03 02:53 Calm 8 Cloudy OVC010 60 59     96%     29.56 29.55 0    
Apr 03 02:18 Calm 3 Fog/Mist OVC011 60 59     96%     29.57        
Apr 03 02:08 Calm 3 Fog/Mist BKN009 OVC015 60 58     93%     29.58        
Apr 03 01:53 Calm 3 Fog/Mist FEW003 BKN010 OVC015 60 58     93%     29.58 29.57 0    
Apr 03 01:08 Calm 2.5 Light Rain and Fog/Mist OVC004 60 59     96%     29.6   0    
Apr 03 00:53 SE 3 2.5 Light Rain and Fog/Mist OVC005 60 59     96%     29.6 29.59 0   0
Apr 02 23:53 Calm 10 Cloudy OVC008 60 58     93%     29.6 29.59      
Apr 02 22:53 3 10 Cloudy OVC009 61 58     90%     29.66 29.64      
Apr 02 22:38 Calm 10 Cloudy OVC009 61 58     90%     29.65        
Apr 02 21:53 ESE 3 10 Cloudy OVC011 61 58     90%     29.67 29.66      
Apr 02 20:53 ESE 3 10 Cloudy OVC012 61 58     90%     29.65 29.64      
Apr 02 20:09 Calm 10 Cloudy OVC014 61 58     90%     29.65        
Apr 02 19:53 3 10 Cloudy OVC015 61 58     90%     29.66 29.65      
Apr 02 19:49 ESE 7 10 Cloudy OVC015 61 57     88%     29.66        
Apr 02 19:26 Calm 9 Cloudy BKN010 OVC015 61 60     97%     29.66        
Apr 02 18:53 Calm 10 Cloudy OVC008 61 59     93%     29.65 29.64     1
Apr 02 17:53 5 10 Cloudy OVC008 61 59     93%     29.66 29.65 0    
Apr 02 16:53 E 9 10 Light Rain BKN007 BKN050 OVC080 60 58     93%     29.66   0    
Apr 02 16:39 ESE 8 4 Light Rain and Fog/Mist BKN009 BKN045 OVC090 59 58     96%     29.67   0    
Apr 02 16:32 ESE 10 2 Rain and Fog/Mist SCT009 BKN047 OVC080 59 58     96%     29.7   0    
Apr 02 16:27 E 9 1.5 Heavy Rain and Fog/Mist SCT011 OVC045 59 58     96%     29.7   0    
Apr 02 16:20 ESE 7 2.5 Rain and Fog/Mist FEW007 BKN011 OVC070 59 58     96%     29.77   0    
Apr 02 16:11 E 3 4 Rain and Fog/Mist BKN009 BKN047 OVC090 59 57     93%     29.77   0    
Apr 02 15:53 E 6 4 Rain and Fog/Mist SCT070 OVC090 59 57     93%     29.77 29.76 0 1  
Apr 02 14:53 6 3 Rain and Fog/Mist BKN070 OVC090 59 57     93%     29.81 29.8 0    
Apr 02 14:43 E 6 3 Heavy Rain and Fog/Mist BKN070 OVC080 59 56     90%     29.84   0    
Apr 02 14:35 6 2.5 Heavy Rain and Fog/Mist BKN070 OVC085 59 56     90%     29.85   0    
Apr 02 13:53 E 3 4 Rain and Fog/Mist BKN070 OVC090 60 58     93%     29.85 29.84 0    
Apr 02 12:53 Calm 10 Light Rain OVC075 62 58     86%     29.86 29.85 0   0
Apr 02 11:53 E 5 10 Partly Cloudy SCT110 65 52     63%     29.88 29.86      
Apr 02 10:53 3 10 Clear CLR 66 52     61%     29.89 29.87      
Apr 02 09:53 5 10 Clear CLR 63 52     67%     29.93 29.91      
Apr 02 08:53 3 10 Clear CLR 60 51     72%     29.93 29.92      
Apr 02 07:53 Calm 10 Clear CLR 56 52     87%     29.97 29.96      
Apr 02 06:53 Calm 10 Mostly Clear FEW070 57 51     81%     29.98 29.96      
Apr 02 05:53 Calm 10 Clear CLR 58 52     81%     29.98 29.96      
Apr 02 04:53 ESE 3 10 Clear CLR 58 52     81%     29.97 29.95      
Apr 02 03:53 Calm 10 Partly Cloudy SCT065 58 52     81%     29.98 29.96      
Apr 02 02:53 Calm 10 Clear CLR 59 53     81%     29.98 29.96      
Apr 02 01:53 Calm 10 Mostly Cloudy BKN070 59 54     83%     29.98 29.96      
Apr 02 00:53 Calm 10 Mostly Clear FEW065 60 54     80%     30 29.98      
Apr 01 23:53 Calm 10 Clear CLR 62 53     72%     30.01 29.99      
Apr 01 21:53 6 10 Clear CLR 66 53     63%     30.01 30      
Apr 01 20:53 E 3 10 Clear CLR 67 53     61%     29.99 29.97      
Apr 01 19:53 3 10 Clear CLR 69 53     57%     29.98 29.97      
Apr 01 18:53 3 10 Clear CLR 72 54     53%   71 29.98 29.97      
Apr 01 17:53 E 7 10 Clear CLR 75 54     48%   74 29.96 29.94      
Apr 01 16:53 ESE 8 10 Clear   76 53     45%   75 29.96 29.95      
Apr 01 15:53 SE 9 10 Clear CLR 76 54     47%   75 29.97 29.95      
Apr 01 14:53 3 10 Clear CLR 76 54     47%   75 30 29.98      
Apr 01 13:53 6 10 Clear CLR 74 54     50%   73 30.03 30.01      
Apr 01 12:53   10 Clear CLR 69 51     53%     30.05 30.04      
Apr 01 11:53 6 10 Clear CLR 66 51     59%     30.07 30.06      
Apr 01 10:53   10 Clear CLR 63 50     63%     30.08 30.07      
Apr 01 09:53 6 10 Clear CLR 59 50     72%     30.08 30.07      
Apr 01 08:53 3 10 Partly Cloudy SCT016 57 50     77%     30.07 30.06      
Apr 01 08:24 ESE 7 10 Partly Cloudy SCT014 56 50     80%     30.06        
Apr 01 08:10 6 10 Mostly Cloudy BKN014 56 51     84%     30.05        
Apr 01 06:53 Calm 10 Clear CLR 54 50     86%     30.01 30      
Apr 01 05:53 Calm 10 Clear CLR 55 50     83%     29.99 29.97      
Apr 01 04:53 Calm 10 Clear CLR 53 50     89%     29.97 29.96      
Apr 01 03:53 Calm 10 Clear CLR 52 50     93%     29.96 29.95      
Apr 01 02:53 Calm 10 Clear CLR 52 50     93%     29.95 29.94      
Apr 01 01:53 Calm 10 Clear CLR 55 52     89%     29.94 29.93      
Apr 01 00:53 Calm 10 Clear CLR 55 53     93%     29.93 29.92      
Mar 31 23:53 Calm 10 Clear CLR 55 53     93%     29.92 29.91      
Mar 31 22:53 Calm 10 Clear CLR 58 54     87%     29.9 29.89      
Mar 31 21:53 Calm 10 Clear CLR 61 53     75%     29.88 29.87      
Mar 31 20:53 Calm 10 Clear CLR 64 53     67%     29.86 29.85      
Mar 31 19:53 Calm 10 Clear CLR 66 53     63%     29.84 29.84      
Mar 31 18:53 E 3 10 Clear CLR 72 52     49%   71 29.83 29.82      
Mar 31 17:53 5 10 Clear CLR 76 50     40%   75 29.82 29.81      
Mar 31 16:53 ENE 6 10 Clear CLR 75 48     38%   74 29.82 29.8      
Mar 31 14:53 3 10 Clear CLR 73 47     39%   72 29.83 29.82      
Mar 31 13:53 NE 3 10 Clear CLR 71 47     42%   70 29.85 29.84      
Mar 31 11:53 3 10 Clear CLR 63 46     54%     29.88 29.88      
Mar 31 10:53 E 3 10 Clear CLR 58 44     60%     29.89 29.89      
Mar 31 09:53 SSE 3 10 Clear CLR 54 44     69%     29.88 29.88      
Mar 31 08:53 Calm 10 Clear CLR 50 45     83%     29.86 29.86      
Mar 31 07:53 Calm 10 Clear CLR 42 40     92%     29.84 29.85      
Mar 31 06:53 Calm 5 Fog/Mist FEW001 40 39     97%     29.83 29.84      
Mar 31 06:48 Calm 2 Fog/Mist FEW001 41 39     93%     29.83        
Mar 31 06:43 Calm 1.75 Fog/Mist CLR 41 39     93%     29.83        
Mar 31 06:38 Calm 4 Fog/Mist FEW002 41 40     96%     29.83        
Mar 31 05:53 Calm 10 Clear CLR 43 41     93%     29.82 29.82      
Mar 31 04:53 Calm 10 Clear CLR 44 41     89%     29.8 29.8      
Mar 31 03:53 Calm 10 Clear CLR 45 42     90%     29.79 29.79      
Mar 31 02:53 Calm 10 Clear CLR 46 43     89%     29.77 29.77      
Mar 31 01:53 N 6 10 Clear CLR 50 44     80% 48   29.76 29.76      
Mar 31 00:53 NNW 5 10 Clear CLR 50 44     80% 48   29.77 29.77      
Mar 30 23:53 NW 3 10 Clear CLR 48 46     93% 47   29.77 29.77      
Mar 30 22:53 Calm 10 Clear CLR 49 46     90%     29.77 29.77      
Mar 30 21:53 Calm 10 Clear CLR 50 47     89%     29.75 29.75      
Mar 30 20:53 Calm 10 Clear   54 48     80%     29.73 29.73      
Mar 30 19:53 Calm 10 Cloudy OVC055 56 48     75%     29.72 29.72      
Mar 30 18:53 Calm 10 Cloudy OVC048 58 47     67%     29.71 29.71      
Mar 30 17:53 Calm 10 Clear   59 43     55%     29.71 29.7      
Mar 30 16:53 5 10 Cloudy OVC043 59 42     53%     29.7 29.69      
Mar 30 15:53 6 10 Cloudy OVC040 59 42     53%     29.7 29.69      
Mar 30 14:53 3 10 Cloudy OVC039 58 42     55%     29.71 29.7      
Mar 30 13:53 W 9 10 Cloudy OVC038 58 41     53%     29.71 29.7      
Mar 30 11:53 WSW 8 10 Clear   55 40     57%     29.73 29.72      
Mar 30 10:53 3 10 Cloudy OVC036 54 41     61%     29.74 29.73      
Mar 30 09:53 6 10 Cloudy OVC033 53 41     63%     29.71 29.7      
Mar 30 09:35 5 10 Cloudy OVC031 53 41     63%     29.7        
Mar 30 08:11 3 10 Mostly Cloudy BKN029 51 43     74%     29.71        
Mar 30 07:53 3 10 Clear CLR 50 44     80% 49   29.71 29.7      
Mar 30 06:53 5 10 Clear CLR 51 46     83%     29.7 29.69      
Mar 30 05:53 3 10 Cloudy FEW028 OVC100 55 50     83%     29.68 29.66      
Mar 30 05:51 3 10 Cloudy SCT028 OVC100 55 50     82%     29.68        
Mar 30 04:53 NW 9 10 Cloudy BKN018 BKN025 OVC030 58 54     87%     29.66 29.64      
Mar 30 04:15 Calm 10 Mostly Cloudy FEW005 SCT008 BKN019 59 57     93%     29.66        
Mar 30 04:08 Calm 9 Mostly Cloudy BKN009 BKN016 60 58     93%     29.66        
Mar 30 03:58 Calm 6 Fog/Mist SCT009 OVC016 59 58     96%     29.66        
Mar 30 03:53 Calm 5 Fog/Mist BKN016 59 58     96%     29.66 29.64      
Mar 30 03:39 Calm 6 Fog/Mist BKN016 59 59     100%     29.65        
Mar 30 03:33 Calm 2 Fog/Mist SCT016 59 59     100%     29.65        
Mar 30 03:17 Calm 5 Fog/Mist CLR 60 58     93%     29.65        
Mar 30 02:53 Calm 2 Fog/Mist FEW020 FEW027 60 59     96%     29.66 29.64      
Mar 30 02:40 Calm 0.75 Fog/Mist FEW002 FEW020 SCT027 60 59     96%     29.67        
Mar 30 02:27 Calm 1.75 Fog/Mist FEW002 60 59     96%     29.67        
Mar 30 02:17 Calm 2 Fog/Mist FEW002 FEW014 60 59     96%     29.67        
Mar 30 02:13 Calm 6 Fog/Mist SCT014 61 59     93%     29.67        
Mar 30 01:53 Calm 10 Mostly Cloudy BKN014 61 60     97%     29.68 29.66      
Mar 30 01:48 Calm 8 Mostly Cloudy BKN014 61 61     100%     29.68        
Mar 30 01:36 Calm 3 Fog/Mist FEW002 SCT014 60 59     96%     29.68        
Mar 30 00:53 Calm 7 Mostly Cloudy BKN110 61 60     97%     29.69 29.67     0
Mar 29 23:53 Calm 10 Mostly Cloudy BKN075 63 61     93%     29.68 29.66 0    
Mar 29 22:53 3 8 Light Rain BKN060 OVC075 62 60     93%     29.72 29.7 0    
Mar 29 21:53 6 9 Light Rain FEW043 SCT065 OVC095 68 64     87%     29.67 29.65 0 0  
Mar 29 21:42 S 9 8 Light Rain FEW035 BKN070 OVC095 68 64     87%     29.67   0    
Mar 29 21:35 7 2.5 Light Rain and Fog/Mist FEW037 BKN046 OVC075 68 64     87%     29.68   0    
Mar 29 20:53 6 10 Partly Cloudy FEW085 SCT110 70 62     76%     29.69 29.66      
Mar 29 19:53 5 10 Mostly Cloudy SCT035 BKN047 BKN055 71 60     68%   71 29.71 29.69      
Mar 29 18:53 S 6 10 Cloudy BKN046 OVC055 75 59     57%   75 29.69 29.67 0   0
Mar 29 17:53 7 10 Mostly Cloudy SCT046 BKN060 76 59     56%   76 29.69 29.66      
Mar 29 16:53 SW 8 10 Mostly Cloudy FEW040 SCT049 BKN065 77 58     52%   77 29.68 29.66      
Mar 29 15:53 SSW 8 10 Partly Cloudy FEW035 SCT044 77 62     60%   77 29.71 29.68      
Mar 29 14:53 S 13 10 Mostly Cloudy SCT036 BKN045 74 60     62%   74 29.74 29.72      
Mar 29 13:53 SSE 9 10 Partly Cloudy SCT034 74 59     60%   74 29.75 29.72      
Mar 29 12:53 SSE 9 10 Clear CLR 73 60     64%   73 29.76 29.74     0
Mar 29 11:53 S 11 10 Clear CLR 70 60     71%     29.78 29.76      
Mar 29 10:53 SSE 13 10 Clear CLR 67 61     81%     29.8 29.78      
Mar 29 09:53 SE 9 10 Clear CLR 65 62     90%     29.75   0 0  
Mar 29 08:53 Calm 10 Light Rain FEW055 OVC070 64 62     93%     29.83 29.81 0    
Mar 29 08:37 Calm 4 Rain and Fog/Mist FEW013 SCT031 OVC075 64 61     90%     29.82   0    
Mar 29 08:29 3 2 Rain and Fog/Mist FEW015 BKN060 OVC075 64 62     93%     29.82   0    
Mar 29 08:23 S 3 0.5 Rain and Fog SCT013 BKN060 OVC070 64 63     96%     29.83   0    
Mar 29 08:16 WSW 8 1.25 Heavy Rain and Fog/Mist SCT015 BKN060 OVC110 65 61     87%     29.84   0    
Mar 29 07:53 SSE 9 10 Mostly Cloudy BKN100 BKN120 65 60     84%     29.79 29.76      
Mar 29 06:53 SE 10 10 Cloudy OVC110 64 60     87%     29.78 29.76 0   0
Mar 29 05:53 ESE 3 10 Mostly Cloudy FEW022 BKN065 BKN100 62 58     86%     29.8 29.78      
Mar 29 04:53 Calm 10 Mostly Cloudy BKN060 BKN075 62 58     86%     29.79 29.77      
Mar 29 03:53 ESE 6 10 Clear CLR 63 59     87%     29.8 29.77      
Mar 29 02:53 ESE 5 10 Partly Cloudy FEW055 SCT070 65 60     84%     29.8 29.78      
Mar 29 01:53 ESE 7 10 Cloudy OVC032 67 60     79%     29.84 29.81      
Mar 29 00:53 E 5 10 Mostly Cloudy SCT042 BKN050 67 59     76%     29.84 29.81      
Mar 28 23:53 ESE 7 10 Cloudy SCT037 BKN050 OVC095 68 59     73%     29.84 29.81      
Mar 28 22:53 E 6 10 Partly Cloudy FEW044 SCT050 SCT060 69 60     73%     29.86 29.83      
Mar 28 21:53 E 8 10 Mostly Cloudy FEW050 BKN080 70 60     71%     29.85 29.83      
Mar 28 20:53 3 10 Mostly Cloudy FEW044 SCT060 BKN080 70 62     76%     29.85 29.83      
Mar 28 19:53 ESE 3 10 Mostly Clear FEW031 72 61     68%   72 29.84 29.83      
Mar 28 18:53 ESE 8 10 Mostly Clear FEW034 74 62     66%   74 29.83 29.82      
Mar 28 16:53 ESE 8 10 Cloudy FEW034 OVC055 74 60     62%   74 29.85 29.83      
Mar 28 15:53 SE 8 10 Mostly Cloudy BKN036 BKN060 75 59     57%   75 29.87 29.86      
Mar 28 14:53 SE 6 10 Cloudy FEW039 OVC048 75 59     57%   75 29.89 29.88      
Mar 28 13:53 7 10 Clear CLR 75 58     55%   75 29.91 29.9      
Mar 28 12:53 6 10 Clear CLR 72 56     57%   72 29.95 29.93      
Mar 28 11:53 5 10 Clear CLR 68 55     63%     29.98 29.96      
Mar 28 10:53 NE 5 10 Clear CLR 64 54     70%     29.99 29.98